Previsão horária em Alkmaar

Hoje, 20 Janeiro, Quarta-feira

Tempo Temperatura Precipitação Vento Pressão Humidade
00:00 +5°C° 0.1 mm 13 m/s 748 mmHg 81%
01:00 +5°C° 0.1 mm 13 m/s 747 mmHg 81%
02:00 +7°C° 0.1 mm 13 m/s 747 mmHg 82%
03:00 +7°C° 0.1 mm 13 m/s 746 mmHg 83%
04:00 +5°C° 0.3 mm 13 m/s 746 mmHg 83%
05:00 +5°C° 0.3 mm 13 m/s 745 mmHg 83%
06:00 +5°C° 0.3 mm 13 m/s 745 mmHg 83%
07:00 +5°C° 0 mm 13 m/s 745 mmHg 82%
08:00 +5°C° 0 mm 13 m/s 745 mmHg 81%
09:00 +5°C° 0 mm 13 m/s 745 mmHg 81%
10:00 +7°C° 0 mm 12 m/s 745 mmHg 81%
11:00 +7°C° 0 mm 12 m/s 745 mmHg 81%
12:00 +7°C° 0 mm 12 m/s 745 mmHg 81%
13:00 +6°C° 0 mm 11 m/s 744 mmHg 76%
14:00 +6°C° 0 mm 11 m/s 744 mmHg 72%
15:00 +6°C° 0 mm 10 m/s 743 mmHg 67%
16:00 +6°C° 0 mm 10 m/s 743 mmHg 67%
17:00 +6°C° 0 mm 10 m/s 743 mmHg 68%
18:00 +6°C° 0 mm 10 m/s 743 mmHg 68%
19:00 +6°C° 0 mm 10 m/s 742 mmHg 67%
20:00 +6°C° 0 mm 10 m/s 741 mmHg 66%
21:00 +6°C° 0 mm 11 m/s 741 mmHg 65%
22:00 +6°C° 0 mm 11 m/s 740 mmHg 67%
23:00 +7°C° 0 mm 11 m/s 739 mmHg 69%

Amanhã, 21 Janeiro, Quinta-feira

Tempo Temperatura Precipitação Vento Pressão Humidade
00:00 +7°C° 0 mm 12 m/s 738 mmHg 71%
01:00 +7°C° 0 mm 13 m/s 736 mmHg 72%
02:00 +8°C° 0 mm 14 m/s 735 mmHg 72%
03:00 +8°C° 0 mm 15 m/s 734 mmHg 73%
04:00 +6°C° 1 mm 15 m/s 735 mmHg 70%
05:00 +5°C° 1 mm 15 m/s 736 mmHg 68%
06:00 +2°C° 1 mm 15 m/s 736 mmHg 66%
07:00 +3°C° 0 mm 14 m/s 737 mmHg 66%
08:00 +4°C° 0 mm 13 m/s 738 mmHg 66%
09:00 +4°C° 0 mm 13 m/s 739 mmHg 67%
10:00 +4°C° 0 mm 13 m/s 739 mmHg 67%
11:00 +5°C° 0 mm 13 m/s 739 mmHg 67%
12:00 +5°C° 0 mm 13 m/s 739 mmHg 68%
13:00 +5°C° 0.1 mm 13 m/s 739 mmHg 68%
14:00 +5°C° 0.1 mm 13 m/s 738 mmHg 68%
15:00 +4°C° 0.1 mm 13 m/s 738 mmHg 68%
16:00 +4°C° 0.1 mm 13 m/s 737 mmHg 70%
17:00 +4°C° 0.1 mm 12 m/s 737 mmHg 72%
18:00 +4°C° 0.1 mm 11 m/s 737 mmHg 73%
19:00 +3°C° 0.4 mm 10 m/s 735 mmHg 78%
20:00 +4°C° 0.4 mm 8 m/s 734 mmHg 84%
21:00 +3°C° 0.4 mm 7 m/s 733 mmHg 89%
22:00 +4°C° 0.7 mm 8 m/s 733 mmHg 85%
23:00 +4°C° 0.7 mm 8 m/s 733 mmHg 82%

Depois de amanhã, 22 Janeiro, Sexta-feira

Tempo Temperatura Precipitação Vento Pressão Humidade
00:00 +3°C° 0.7 mm 9 m/s 733 mmHg 78%
01:00 +3°C° 0 mm 10 m/s 734 mmHg 76%
02:00 +3°C° 0 mm 11 m/s 735 mmHg 74%
03:00 +2°C° 0 mm 12 m/s 736 mmHg 72%
04:00 +2°C° 0.1 mm 12 m/s 736 mmHg 71%
05:00 +2°C° 0.1 mm 12 m/s 737 mmHg 71%
06:00 +2°C° 0.1 mm 12 m/s 737 mmHg 71%
07:00 +2°C° 0 mm 12 m/s 738 mmHg 70%
08:00 +2°C° 0 mm 12 m/s 738 mmHg 70%
09:00 +2°C° 0 mm 12 m/s 739 mmHg 70%
10:00 +2°C° 0 mm 12 m/s 739 mmHg 68%
11:00 +3°C° 0 mm 12 m/s 740 mmHg 66%
12:00 +3°C° 0 mm 12 m/s 740 mmHg 65%
13:00 +3°C° 0 mm 12 m/s 741 mmHg 65%
14:00 +3°C° 0 mm 11 m/s 741 mmHg 66%
15:00 +3°C° 0 mm 10 m/s 741 mmHg 67%
16:00 +2°C° 0 mm 10 m/s 741 mmHg 69%
17:00 +2°C° 0 mm 9 m/s 742 mmHg 71%
18:00 +2°C° 0 mm 8 m/s 742 mmHg 73%
19:00 +3°C° 0 mm 7 m/s 742 mmHg 75%
20:00 +2°C° 0 mm 7 m/s 743 mmHg 77%
21:00 +2°C° 0 mm 6 m/s 743 mmHg 78%
22:00 +2°C° 0 mm 5 m/s 743 mmHg 80%
23:00 +1°C° 0 mm 5 m/s 743 mmHg 83%

23 Janeiro, Sábado

Tempo Temperatura Precipitação Vento Pressão Humidade
00:00 +1°C° 0 mm 4 m/s 743 mmHg 85%
01:00 +1°C° 0.1 mm 4 m/s 743 mmHg 86%
02:00 +1°C° 0.1 mm 4 m/s 743 mmHg 86%
03:00 +1°C° 0.1 mm 4 m/s 743 mmHg 87%
04:00 +2°C° 0.1 mm 3 m/s 743 mmHg 87%
05:00 +2°C° 0.1 mm 3 m/s 744 mmHg 86%
06:00 +2°C° 0.1 mm 3 m/s 744 mmHg 86%
07:00 +2°C° 0 mm 3 m/s 744 mmHg 84%
08:00 +2°C° 0 mm 3 m/s 744 mmHg 83%
09:00 +2°C° 0 mm 3 m/s 745 mmHg 82%
10:00 +3°C° 0 mm 4 m/s 745 mmHg 78%
11:00 +4°C° 0 mm 4 m/s 745 mmHg 74%
12:00 +4°C° 0 mm 4 m/s 746 mmHg 70%
13:00 +4°C° 0.1 mm 4 m/s 746 mmHg 71%
14:00 +4°C° 0.1 mm 4 m/s 746 mmHg 72%
15:00 +3°C° 0.1 mm 4 m/s 746 mmHg 73%
16:00 +3°C° 0 mm 3 m/s 746 mmHg 73%
17:00 +2°C° 0 mm 3 m/s 746 mmHg 73%
18:00 +3°C° 0 mm 2 m/s 747 mmHg 73%
19:00 +3°C° 0 mm 2 m/s 747 mmHg 71%
20:00 +2°C° 0 mm 2 m/s 747 mmHg 70%
21:00 +2°C° 0 mm 2 m/s 747 mmHg 68%
22:00 +2°C° 0 mm 2 m/s 747 mmHg 69%
23:00 +2°C° 0 mm 2 m/s 747 mmHg 70%

24 Janeiro, Domingo

Tempo Temperatura Precipitação Vento Pressão Humidade
00:00 +1°C° 0 mm 3 m/s 747 mmHg 70%
01:00 0°C° 0 mm 3 m/s 747 mmHg 71%
02:00 0°C° 0 mm 3 m/s 747 mmHg 72%
03:00 0°C° 0 mm 3 m/s 747 mmHg 72%
04:00 0°C° 0 mm 3 m/s 747 mmHg 74%
05:00 0°C° 0 mm 3 m/s 747 mmHg 75%
06:00 -1°C° 0 mm 3 m/s 747 mmHg 76%
07:00 -1°C° 0 mm 4 m/s 747 mmHg 78%
08:00 -1°C° 0 mm 5 m/s 747 mmHg 79%
09:00 -1°C° 0 mm 5 m/s 747 mmHg 81%
10:00 -1°C° 0 mm 6 m/s 746 mmHg 79%
11:00 -1°C° 0 mm 6 m/s 746 mmHg 77%
12:00 +1°C° 0 mm 6 m/s 746 mmHg 74%
13:00 -1°C° 0.5 mm 6 m/s 746 mmHg 81%
14:00 0°C° 0.5 mm 5 m/s 745 mmHg 88%
15:00 -1°C° 0.5 mm 5 m/s 745 mmHg 95%
16:00 -1°C° 0.2 mm 5 m/s 745 mmHg 94%
17:00 0°C° 0.2 mm 5 m/s 745 mmHg 93%
18:00 0°C° 0.2 mm 4 m/s 745 mmHg 92%
19:00 0°C° 0 mm 4 m/s 745 mmHg 89%
20:00 +1°C° 0 mm 3 m/s 745 mmHg 87%
21:00 0°C° 0 mm 3 m/s 745 mmHg 85%
22:00 +1°C° 0.6 mm 2 m/s 745 mmHg 89%
23:00 +1°C° 0.6 mm 2 m/s 745 mmHg 93%

25 Janeiro, Segunda-feira

Tempo Temperatura Precipitação Vento Pressão Humidade
00:00 +1°C° 0.6 mm 2 m/s 745 mmHg 97%
01:00 +1°C° 0.4 mm 2 m/s 746 mmHg 96%
02:00 0°C° 0.4 mm 3 m/s 746 mmHg 95%
03:00 0°C° 0.4 mm 3 m/s 746 mmHg 94%
04:00 -1°C° 0 mm 4 m/s 747 mmHg 89%
05:00 0°C° 0 mm 5 m/s 747 mmHg 85%
06:00 -1°C° 0 mm 6 m/s 748 mmHg 81%
07:00 0°C° 0 mm 5 m/s 749 mmHg 80%
08:00 0°C° 0 mm 5 m/s 750 mmHg 79%
09:00 +1°C° 0 mm 5 m/s 751 mmHg 78%
10:00 +1°C° 0 mm 4 m/s 752 mmHg 75%
11:00 +3°C° 0 mm 4 m/s 752 mmHg 71%
12:00 +4°C° 0 mm 4 m/s 753 mmHg 68%
13:00 +3°C° 0 mm 4 m/s 753 mmHg 71%
14:00 +3°C° 0 mm 4 m/s 754 mmHg 73%
15:00 +3°C° 0 mm 4 m/s 754 mmHg 76%
16:00 +3°C° 0.2 mm 4 m/s 755 mmHg 80%
17:00 +3°C° 0.2 mm 4 m/s 755 mmHg 85%
18:00 +3°C° 0.2 mm 4 m/s 756 mmHg 89%
19:00 +3°C° 0.1 mm 4 m/s 756 mmHg 87%
20:00 +2°C° 0.1 mm 5 m/s 757 mmHg 86%
21:00 +2°C° 0.1 mm 5 m/s 758 mmHg 84%
22:00 +2°C° 0.1 mm 5 m/s 758 mmHg 85%
23:00 +1°C° 0.1 mm 5 m/s 758 mmHg 85%
Mostrar mais

Necessitamos do seu Consentimento

A Meteoprog e os seus Fornecedores de Serviços podem armazenar e aceder a dados pessoais como cookies, identificadores do dispositivo ou outras tecnologias semelhantes existentes no seu dispositivo e processar estes dados para personalizar conteúdos e anúncios, assim como funcionalidades nas redes sociais e análise de tráfego.

  • Armazenar e/ou aceder a informações no seu dispositivo

    Os cookies, identificadores do dispositivo ou outras informações podem ser armazenados ou acedidos no seu dispositivo, para os fins acima indicados.

  • Anúncios e conteúdos personalizados, medição de anúncios e conteúdos, dados sobre o público-alvo e desenvolvimento de produtos

    Os anúncios e os conteúdos podem ser personalizados com base num perfil. Podem ser adicionados dados adicionais para uma maior personalização dos anúncios e dos conteúdos. A eficácia dos anúncios e dos conteúdos pode ser medida. Podem ser obtidas informações sobre o público que visualizou os anúncios e os conteúdos. Estes dados podem ser usados para desenvolver ou melhorar sistemas, softwares ou a experiência do utilizador.

Ao clicar em "Eu concordo”, permitirá o uso de cookies, identificadores do dispositivo e web beacons mencionados ou outras tecnologias semelhantes. As configurações do navegador do seu dispositivo podem ser alteradas.

Para certos fins, podem ser invocados interesses legítimos ao invés de consentimento. Pode ler mais informação sobre este assunto na nossa Política de Privacidade e Cookies.